Theta_e
320 320 320 321 321 321 321 321 322 324 326 327 327 327 326 326 327 330 332 335 338 343 345 348 350 348 348 345 342 340 341 343 343 343 343 344 345 343 342 340 339 338 337
321 320 320 321 320 321 322 321 321 323 324 326 326 326 326 326 327 329 331 333 336 343 345 348 349 348 348 346 343 342 341 342 342 342 341 343 343 341 339 337 336 335 334
322 322 321 321 322 321 322 321 321 323 323 323 324 325 325 326 327 328 331 334 337 342 344 346 347 347 347 346 342 342 340 341 340 339 341 340 340 339 337 335 335 334 333
324 322 321 321 321 322 321 320 320 321 321 322 322 323 324 325 326 328 332 334 337 341 343 345 347 346 345 345 343 343 341 340 338 338 339 339 339 338 337 335 334 333 332
327 322 321 321 322 321 321 320 319 321 320 321 322 323 323 324 326 331 332 333 335 339 341 343 343 343 344 344 342 342 341 339 338 339 339 339 338 338 337 334 333 331 330
326 323 322 321 321 320 319 319 320 321 321 322 323 322 322 324 328 329 330 333 336 335 337 338 342 341 342 343 343 342 341 339 338 339 339 338 337 336 335 333 332 330 329
325 322 322 321 321 319 318 319 320 320 321 322 320 319 321 322 324 328 332 334 331 333 336 337 337 338 340 342 341 341 341 341 339 338 338 336 336 335 333 332 331 329 328
325 323 321 321 320 318 318 319 320 319 320 322 318 317 315 321 325 328 330 330 330 333 334 335 336 336 337 338 338 339 342 341 340 338 338 336 336 334 332 331 330 329 328
325 324 323 321 320 318 317 318 320 321 319 322 322 319 314 314 321 326 327 327 330 330 332 334 334 334 334 335 336 338 338 339 339 338 337 336 335 333 332 331 329 329 328
325 325 324 322 320 319 317 319 321 321 321 319 321 322 322 324 317 315 324 326 329 329 329 332 331 332 332 333 336 338 336 336 337 336 335 335 335 333 332 331 329 329 328
325 326 325 322 321 319 318 320 320 321 321 320 320 321 322 321 324 322 315 319 325 327 329 330 330 331 331 333 334 334 333 334 333 334 335 335 334 333 332 330 329 328 328
323 324 326 325 322 320 319 320 321 321 322 323 323 322 320 319 319 322 318 319 319 323 327 329 329 330 330 333 334 333 331 330 329 330 331 333 333 332 331 329 329 328 327
322 322 324 322 321 320 320 321 321 321 323 324 323 322 321 323 323 323 322 318 318 322 324 327 329 330 331 331 332 332 331 327 325 325 326 328 330 331 331 330 329 328 326
322 323 324 322 322 321 321 321 321 322 322 322 322 322 323 324 327 327 323 319 316 319 322 321 327 330 331 330 332 332 329 325 323 321 322 323 325 327 328 328 328 327 328
324 323 324 324 323 322 322 321 322 322 323 321 323 323 324 324 325 323 323 324 319 315 316 321 322 328 330 330 331 329 328 324 323 320 320 320 321 323 323 324 323 324 324
322 322 323 324 323 322 322 322 321 321 321 321 322 321 322 321 323 324 322 323 325 321 316 323 323 326 329 329 329 327 326 325 321 319 319 318 318 319 320 320 320 321 322
323 322 323 323 322 321 322 322 323 323 321 320 320 321 320 321 321 324 323 325 325 323 319 321 324 326 326 326 326 326 326 325 322 320 320 318 316 316 317 317 317 318 318
324 323 323 322 322 322 323 323 323 323 322 320 321 321 321 321 322 324 325 325 325 325 322 318 322 324 324 326 325 325 325 326 325 322 319 317 315 315 314 314 314 313 312
323 323 323 323 323 322 322 323 322 321 320 321 321 321 321 321 322 323 325 325 326 325 324 321 321 324 324 326 325 325 324 324 326 323 317 316 314 314 313 312 311 310 308
324 324 324 325 325 323 322 322 321 320 321 321 321 322 322 322 322 324 324 325 325 324 324 322 321 321 323 324 323 320 317 317 322 321 318 315 314 313 312 311 312 312 307
326 326 325 325 326 324 322 322 322 321 321 322 322 322 322 321 319 320 324 323 323 321 321 320 318 319 319 321 320 318 317 316 317 318 317 314 315 314 311 310 310 308 305
325 326 325 325 325 323 305 311 318 322 322 322 321 321 320 318 315 312 312 312 319 320 318 317 315 317 317 319 319 318 316 315 313 318 317 310 311 308 309 309 305 303 302
321 323 323 324 322 318 304 305 312 323 322 323 322 322 322 321 320 319 310 310 311 311 315 319 316 318 317 320 317 315 315 314 315 313 314 307 309 306 308 307 303 301 301
317 319 321 321 320 314 302 303 308 324 323 324 324 323 322 321 318 319 318 318 317 317 318 319 321 318 320 320 320 319 317 314 311 309 316 307 307 306 307 305 301 300 299
314 316 318 320 316 312 300 302 316 323 323 323 323 323 322 321 304 304 317 316 313 310 302 300 301 300 300 303 312 318 316 315 311 309 309 308 306 306 306 304 303 300 298
314 315 314 316 311 314 299 302 316 323 322 322 322 321 310 318 301 303 315 315 313 310 308 308 310 307 307 305 305 320 318 314 307 307 310 308 306 306 303 304 301 300 301
Wind_Speed
5 4 4 4 4 3 3 3 3 3 3 5 5 7 6 5 5 3 3 12 13 14 13 16 19 23 25 22 24 23 20 16 18 15 16 17 17 17 17 16 16 15 15
5 4 5 6 4 4 3 3 4 3 3 4 5 5 5 3 5 5 4 5 13 12 10 15 20 22 24 24 21 19 20 18 18 16 18 19 18 16 18 17 17 16 17
6 6 5 5 4 3 4 3 3 2 2 3 5 4 3 5 5 6 5 5 6 10 10 18 21 22 25 25 26 20 21 15 17 14 18 20 17 16 17 17 17 17 17
7 5 4 5 3 3 3 3 2 2 3 4 3 3 3 4 5 6 5 4 4 4 8 17 18 22 22 24 24 24 20 19 19 16 18 18 17 16 17 17 18 18 16
5 5 4 3 4 3 3 3 2 3 3 4 4 3 2 3 4 3 5 5 5 4 3 9 18 21 22 24 26 26 19 17 20 20 20 18 18 17 17 18 18 17 16
4 4 3 3 3 3 3 4 3 3 3 4 3 1 1 2 2 4 4 3 3 3 4 4 6 9 18 20 23 24 22 20 21 21 20 19 18 18 18 19 18 17 16
4 5 3 3 4 4 4 5 3 4 2 3 3 2 3 1 2 4 3 2 2 3 5 5 4 4 8 18 21 24 24 23 23 23 19 18 18 18 18 18 17 15 14
4 4 4 4 5 4 5 5 4 3 2 3 3 2 2 2 3 2 3 3 2 3 6 5 6 7 7 8 16 22 25 24 23 23 21 18 16 17 18 17 18 16 13
3 4 4 4 5 4 5 4 4 4 3 1 2 4 3 2 3 2 2 3 4 3 4 6 6 5 9 8 16 18 24 24 23 21 20 18 17 17 17 17 16 15 12
3 3 3 4 5 4 5 4 3 2 3 4 1 3 2 3 3 3 2 3 5 6 4 3 6 7 9 8 17 20 23 21 21 21 18 18 17 17 17 15 14 13 12
2 2 3 4 5 4 5 6 4 3 2 3 2 2 2 3 2 3 3 2 4 4 4 4 4 6 9 8 8 19 21 17 18 17 17 17 16 17 16 15 13 11 9
1 1 3 4 4 4 5 4 4 4 4 4 2 3 2 3 1 3 3 3 5 2 4 4 5 3 10 8 16 21 20 15 14 11 11 12 13 15 14 13 11 9 7
1 0 3 4 3 4 5 5 5 4 4 3 4 3 2 4 3 3 5 3 2 2 3 3 6 3 9 10 13 19 19 14 12 10 10 9 10 11 11 11 10 7 4
1 1 3 4 5 5 5 4 3 3 3 3 6 4 3 3 3 3 3 5 4 3 3 2 3 7 10 10 15 18 12 14 12 10 10 8 9 9 9 8 7 5 3
1 2 4 4 5 6 6 5 4 4 4 3 5 6 5 3 4 3 4 3 3 3 2 2 1 7 8 12 12 8 8 11 11 9 7 7 8 7 6 6 4 3 4
2 3 3 4 4 5 5 5 4 5 6 3 4 6 5 3 4 4 4 3 2 3 4 1 3 6 8 8 13 8 8 10 10 8 7 7 7 6 5 5 5 5 3
4 3 4 5 6 5 6 7 7 7 8 7 5 6 6 5 4 5 3 3 4 5 6 4 5 7 5 13 10 8 7 6 4 7 6 6 6 6 5 5 5 5 4
3 4 5 7 7 6 7 8 7 5 7 7 7 8 8 5 6 6 4 5 5 4 5 10 8 7 7 11 9 8 5 4 3 7 5 7 7 6 5 5 4 5 5
4 4 6 7 7 7 8 7 6 7 6 5 7 7 6 9 7 5 6 7 6 6 4 7 6 5 7 8 7 5 5 4 2 5 6 4 4 2 3 2 2 1 2
4 5 6 7 8 8 8 8 8 9 8 7 6 6 6 8 9 7 7 8 7 7 7 8 8 7 5 5 5 3 3 2 2 1 4 6 5 6 6 6 6 8 8
4 5 8 6 7 8 7 8 8 8 8 8 7 7 6 8 9 6 5 5 8 5 7 7 7 7 6 6 5 2 3 2 3 2 3 4 6 7 7 10 13 14 13
5 6 7 9 6 5 11 11 11 8 8 8 8 8 9 12 12 14 13 11 9 7 8 4 3 6 5 3 3 3 4 3 3 3 4 7 6 7 7 8 13 15 17
4 6 5 5 6 6 12 12 11 8 7 8 9 8 8 7 8 7 9 11 9 10 5 5 7 6 6 7 6 4 3 3 3 2 7 6 3 8 7 8 15 16 15
4 4 6 5 5 4 9 12 11 10 8 8 8 8 7 6 5 6 7 6 4 4 3 3 4 5 4 7 6 4 5 7 5 4 1 4 2 5 6 8 10 11 12
3 3 3 6 7 4 7 10 10 9 9 8 7 7 5 5 5 10 6 8 7 5 8 11 11 9 9 11 8 8 6 6 2 2 3 3 3 3 4 5 5 13 19
4 5 5 3 7 6 6 9 9 7 9 6 5 5 6 5 6 6 5 5 7 4 7 6 6 8 8 8 5 3 7 6 4 2 2 3 4 4 4 2 6 9 8
Wind_Direction
214 211 217 215 222 211 216 231 237 236 226 213 192 189 198 214 228 237 248 267 265 263 243 229 195 185 170 160 163 157 206 171 155 164 163 147 130 127 133 131 126 123 122
214 214 220 219 216 204 216 226 229 223 221 196 198 193 204 221 243 248 249 255 265 257 243 212 180 174 167 167 161 172 182 171 152 161 160 138 128 139 134 130 127 125 117
216 216 221 227 213 196 209 220 227 198 210 203 212 190 191 228 242 245 247 240 256 243 227 194 185 181 169 165 157 177 176 161 138 162 168 128 134 136 133 130 126 122 119
216 216 216 219 187 190 198 198 181 184 203 194 182 196 213 226 240 245 239 230 240 223 218 201 177 172 172 167 167 162 166 148 146 172 145 134 136 138 132 133 127 123 124
222 206 207 211 174 187 198 176 170 161 178 187 191 199 224 241 241 231 221 216 234 191 189 203 183 175 173 169 162 168 156 148 159 165 140 139 140 135 135 133 129 129 124
230 203 208 205 178 170 180 173 158 176 168 186 165 135 304 275 226 199 170 153 197 170 167 176 179 181 172 172 169 156 149 156 169 156 139 143 137 144 143 136 135 129 124
230 199 194 180 179 174 176 167 145 165 146 143 118 78 48 16 180 150 137 130 168 122 129 129 142 142 168 163 162 155 154 163 164 146 139 146 147 147 141 140 131 128 140
221 198 183 191 174 155 160 165 149 135 118 159 134 99 84 34 59 62 107 98 151 106 114 113 131 131 141 152 152 151 166 163 154 149 148 138 147 147 147 135 140 144 142
208 190 194 189 166 158 162 158 155 151 127 107 148 131 132 160 124 66 141 113 131 108 99 124 109 131 126 139 153 162 150 156 150 149 138 153 151 156 143 147 146 144 140
215 210 206 177 162 152 154 168 176 160 127 142 120 60 89 144 160 137 81 125 115 125 123 115 126 132 124 145 165 164 147 149 147 139 149 157 160 152 150 152 151 147 143
242 190 183 174 162 157 159 171 154 161 127 133 134 138 71 51 80 113 120 149 97 118 118 119 101 151 145 144 133 129 139 130 134 148 160 160 160 156 156 157 153 143 155
326 272 179 175 168 157 160 165 145 155 172 149 142 118 132 135 153 118 117 119 109 94 109 111 115 147 148 137 139 133 128 134 140 148 154 154 159 157 154 154 152 156 163
17 310 166 159 156 155 150 147 151 164 185 161 137 115 144 132 141 118 110 82 112 108 78 68 131 121 128 128 131 129 133 133 137 142 141 141 150 149 154 159 161 161 169
40 251 158 155 149 136 140 145 136 137 138 127 107 119 131 121 133 116 118 135 112 86 71 97 129 137 126 130 129 129 135 138 138 142 130 142 150 154 154 160 147 151 169
92 151 160 140 132 131 146 149 138 126 133 122 118 107 110 127 95 99 110 137 110 113 91 65 98 108 124 130 126 126 128 133 126 131 136 166 151 149 151 153 154 189 214
72 102 124 114 113 121 131 122 111 122 117 108 105 118 109 94 106 108 126 127 104 118 118 93 72 110 111 110 122 118 119 126 130 141 174 159 154 147 163 180 205 235 259
54 76 105 114 117 120 117 114 123 121 119 115 106 120 118 132 126 131 121 111 106 95 112 106 115 131 111 124 115 111 122 111 126 167 161 157 155 175 197 219 240 253 261
87 113 121 121 124 123 118 126 127 121 132 133 116 121 129 116 121 129 124 113 108 109 118 134 134 138 126 118 122 124 123 123 146 170 187 186 179 202 226 245 284 324 357
81 92 101 110 115 120 125 127 123 118 118 111 117 126 127 124 128 125 120 124 119 118 120 131 124 117 131 129 128 105 118 126 147 186 187 192 206 249 351 10 350 351 279
93 89 101 115 119 117 123 127 122 126 118 109 103 109 123 139 141 128 120 128 128 124 126 115 125 135 122 124 99 112 111 84 136 106 68 52 80 95 62 56 57 50 49
82 97 111 104 116 120 126 119 114 109 111 114 115 114 121 118 103 101 114 113 117 105 117 112 100 121 129 123 141 131 103 125 72 84 87 50 77 78 65 67 74 66 59
86 93 110 118 111 107 125 121 128 117 112 116 113 111 112 104 99 93 88 73 99 117 107 96 104 126 129 125 127 147 134 143 128 58 101 74 81 79 66 67 70 69 66
101 100 99 115 117 123 125 118 109 116 114 113 112 119 108 102 98 97 86 84 89 95 105 130 140 149 153 165 141 143 139 107 100 88 112 91 66 88 71 67 74 80 80
98 94 101 97 103 106 128 122 119 118 111 111 107 108 114 103 85 100 96 86 93 102 116 123 132 146 126 151 141 141 126 106 94 83 22 110 164 114 93 81 78 94 88
106 98 100 104 105 115 141 128 114 113 118 117 120 120 121 105 86 75 94 114 111 84 49 72 81 93 116 134 139 122 124 128 94 57 39 111 158 124 125 105 90 66 57
115 114 101 96 110 129 129 141 131 127 122 133 118 115 119 115 98 77 105 136 112 116 119 101 82 66 72 79 77 76 151 141 135 139 84 124 152 179 146 123 54 48 49